Torna al catalogo

STARLINK-4543

AttivoComunicazioniVLEO
NORAD 53429·PAYLOAD·🇺🇸 United States

Lanciato Aug 10, 2022 da Cape Canaveral Space Force Station

Loading…

Prossimi Passaggi (prossime 24 ore)

TLE

AggiornatoSource: CelesTrak SupGP

Epoca: Sep 14, 2026, 13:10 UTC

1 53429C 22097AT  26257.54909722  .00020643  00000+0  59067-3 0  2574
2 53429  53.1578 321.7117 0001292  84.0101 297.4176 15.35385501    17

Traccia STARLINK-4543 in tempo reale con AllMySat

Download on the App Store